TimePST,TemperatureF,Dew PointF,Humidity,Sea Level PressureIn,VisibilityMPH,Wind Direction,Wind SpeedMPH,Gust SpeedMPH,PrecipitationIn,Events,Conditions,WindDirDegrees,DateUTC
12:15 AM,24.8,14.0,64,30.25,10.0,ESE,8.1,-,N/A,,Clear,120,2013-01-04 08:15:00
12:35 AM,26.6,12.2,55,30.25,10.0,ESE,10.4,-,N/A,,Clear,120,2013-01-04 08:35:00
12:55 AM,24.8,12.2,59,30.25,10.0,ESE,8.1,-,N/A,,Clear,120,2013-01-04 08:55:00
3:35 AM,28.4,8.6,43,30.23,10.0,ESE,10.4,-,N/A,,Clear,110,2013-01-04 11:35:00
3:55 AM,32.0,6.8,35,30.23,10.0,ESE,9.2,-,N/A,,Clear,110,2013-01-04 11:55:00
4:15 AM,30.2,6.8,37,30.22,10.0,East,11.5,-,N/A,,Clear,100,2013-01-04 12:15:00
4:35 AM,32.0,5.0,32,30.22,10.0,ESE,10.4,-,N/A,,Clear,110,2013-01-04 12:35:00
4:55 AM,35.6,3.2,26,30.22,10.0,East,12.7,-,N/A,,Clear,100,2013-01-04 12:55:00
5:35 AM,35.6,1.4,24,30.23,10.0,East,10.4,-,N/A,,Clear,100,2013-01-04 13:35:00
5:55 AM,35.6,1.4,24,30.23,10.0,East,11.5,-,N/A,,Clear,100,2013-01-04 13:55:00
6:15 AM,35.6,1.4,24,30.24,10.0,East,11.5,-,N/A,,Clear,100,2013-01-04 14:15:00
6:35 AM,33.8,1.4,25,30.24,10.0,East,10.4,-,N/A,,Clear,100,2013-01-04 14:35:00
6:55 AM,33.8,1.4,25,30.25,10.0,East,10.4,-,N/A,,Clear,100,2013-01-04 14:55:00
7:15 AM,35.6,1.4,24,30.26,9.0,East,12.7,-,N/A,,Clear,100,2013-01-04 15:15:00
7:35 AM,35.6,1.4,24,30.26,10.0,East,9.2,-,N/A,,Clear,100,2013-01-04 15:35:00
7:55 AM,35.6,5.0,28,30.27,10.0,East,10.4,-,N/A,,Clear,100,2013-01-04 15:55:00
8:15 AM,39.2,3.2,22,30.28,10.0,East,8.1,-,N/A,,Clear,100,2013-01-04 16:15:00
8:35 AM,39.2,5.0,24,30.29,10.0,East,8.1,-,N/A,,Clear,100,2013-01-04 16:35:00
8:55 AM,41.0,5.0,23,30.29,10.0,ESE,9.2,-,N/A,,Clear,110,2013-01-04 16:55:00
9:15 AM,42.8,5.0,21,30.29,8.0,East,10.4,-,N/A,,Clear,100,2013-01-04 17:15:00
9:35 AM,44.6,5.0,20,30.30,10.0,ESE,11.5,-,N/A,,Clear,110,2013-01-04 17:35:00
9:55 AM,46.4,5.0,18,30.29,5.0,ESE,12.7,-,N/A,,Haze,120,2013-01-04 17:55:00
10:15 AM,46.4,5.0,18,30.29,9.0,ESE,12.7,-,N/A,,Clear,110,2013-01-04 18:15:00
10:35 AM,48.2,3.2,16,30.28,8.0,ESE,13.8,19.6,N/A,,Clear,120,2013-01-04 18:35:00
10:55 AM,48.2,3.2,16,30.27,8.0,SE,15.0,19.6,N/A,,Clear,130,2013-01-04 18:55:00
11:15 AM,48.2,3.2,16,30.26,10.0,ESE,15.0,-,N/A,,Clear,120,2013-01-04 19:15:00
11:35 AM,48.2,1.4,15,30.25,10.0,ESE,13.8,17.3,N/A,,Clear,120,2013-01-04 19:35:00
11:55 AM,50.0,1.4,14,30.24,10.0,East,12.7,18.4,N/A,,Clear,90,2013-01-04 19:55:00
12:15 PM,50.0,3.2,15,30.23,10.0,East,13.8,19.6,N/A,,Clear,90,2013-01-04 20:15:00
12:35 PM,50.0,3.2,15,30.22,8.0,East,12.7,-,N/A,,Clear,90,2013-01-04 20:35:00
12:55 PM,51.8,3.2,14,30.22,10.0,East,10.4,-,N/A,,Clear,100,2013-01-04 20:55:00
1:15 PM,51.8,5.0,15,30.21,10.0,East,13.8,-,N/A,,Clear,90,2013-01-04 21:15:00
1:35 PM,51.8,3.2,14,30.21,10.0,East,11.5,-,N/A,,Clear,90,2013-01-04 21:35:00
1:55 PM,51.8,3.2,14,30.20,9.0,ESE,8.1,-,N/A,,Clear,120,2013-01-04 21:55:00
2:15 PM,51.8,1.4,13,30.20,10.0,East,9.2,-,N/A,,Clear,100,2013-01-04 22:15:00
2:35 PM,51.8,1.4,13,30.20,10.0,ESE,8.1,-,N/A,,Clear,120,2013-01-04 22:35:00
2:55 PM,51.8,3.2,14,30.20,10.0,ESE,8.1,-,N/A,,Clear,120,2013-01-04 22:55:00
3:15 PM,50.0,3.2,15,30.20,10.0,SE,8.1,-,N/A,,Clear,130,2013-01-04 23:15:00
3:35 PM,50.0,5.0,16,30.20,10.0,SE,9.2,-,N/A,,Clear,130,2013-01-04 23:35:00
3:55 PM,48.2,6.8,19,30.21,10.0,SE,9.2,-,N/A,,Clear,140,2013-01-04 23:55:00
4:15 PM,46.4,5.0,18,30.21,10.0,ESE,9.2,-,N/A,,Clear,110,2013-01-05 00:15:00
4:35 PM,44.6,5.0,20,30.21,10.0,East,6.9,-,N/A,,Clear,100,2013-01-05 00:35:00
4:55 PM,39.2,6.8,26,30.21,10.0,SE,8.1,-,N/A,,Clear,130,2013-01-05 00:55:00
5:15 PM,37.4,6.8,28,30.22,10.0,ESE,6.9,-,N/A,,Clear,120,2013-01-05 01:15:00
5:35 PM,35.6,8.6,33,30.22,10.0,SE,9.2,-,N/A,,Clear,140,2013-01-05 01:35:00
5:55 PM,33.8,8.6,35,30.22,10.0,SE,9.2,-,N/A,,Clear,130,2013-01-05 01:55:00
6:15 PM,32.0,8.6,38,30.23,10.0,SE,10.4,-,N/A,,Clear,130,2013-01-05 02:15:00
6:35 PM,32.0,8.6,38,30.23,10.0,SE,9.2,-,N/A,,Clear,130,2013-01-05 02:35:00
6:55 PM,32.0,10.4,41,30.23,10.0,SE,9.2,-,N/A,,Clear,130,2013-01-05 02:55:00
7:15 PM,32.0,10.4,41,30.24,10.0,SE,10.4,-,N/A,,Clear,130,2013-01-05 03:15:00
7:35 PM,32.0,10.4,41,30.24,10.0,ESE,9.2,-,N/A,,Clear,120,2013-01-05 03:35:00
7:55 PM,32.0,10.4,41,30.24,10.0,ESE,9.2,-,N/A,,Clear,120,2013-01-05 03:55:00
8:15 PM,32.0,10.4,41,30.24,10.0,SE,10.4,-,N/A,,Clear,130,2013-01-05 04:15:00
8:35 PM,32.0,10.4,41,30.25,10.0,SE,10.4,-,N/A,,Clear,130,2013-01-05 04:35:00
8:55 PM,30.2,12.2,47,30.25,10.0,SE,10.4,-,N/A,,Clear,130,2013-01-05 04:55:00
9:15 PM,28.4,12.2,51,30.26,10.0,SE,10.4,-,N/A,,Clear,140,2013-01-05 05:15:00
9:35 PM,28.4,12.2,51,30.26,10.0,SE,10.4,-,N/A,,Clear,130,2013-01-05 05:35:00
9:55 PM,28.4,12.2,51,30.26,10.0,ESE,8.1,-,N/A,,Clear,120,2013-01-05 05:55:00
10:15 PM,26.6,10.4,51,30.26,10.0,Calm,Calm,-,N/A,,Clear,0,2013-01-05 06:15:00
10:35 PM,26.6,12.2,55,30.26,10.0,SE,5.8,-,N/A,,Clear,130,2013-01-05 06:35:00
10:55 PM,28.4,12.2,51,30.27,10.0,ESE,4.6,-,N/A,,Clear,120,2013-01-05 06:55:00
11:15 PM,26.6,12.2,55,30.27,10.0,Calm,Calm,-,N/A,,Clear,0,2013-01-05 07:15:00
11:35 PM,24.8,14.0,64,30.27,10.0,Calm,Calm,-,N/A,,Clear,0,2013-01-05 07:35:00
11:55 PM,24.8,12.2,59,30.27,10.0,ESE,3.5,-,N/A,,Clear,120,2013-01-05 07:55:00